www.pogodaiklimat.ru

Погода и климат >> Архив погоды >> Бразилия >> Santa Tereza


ПОГОДА в Santa Tereza

  • Прогноз погоды в Santa Tereza
  • Монитор погоды в Santa Tereza
  • Климат города

АРХИВ ПОГОДЫ в Santa Tereza

Время (UTC), дата Ветер
(напр.,м/с)
 
Видим.   Явления Облачность Т
(С)
Тd
(С)
f
(%)
Тe
(С)
Тes
(С)
Комфортность P
(гПа)
Po
(гПа)
Тmin
(С)
Tmax
(С)
R
(мм)
R24
(мм)
S
(см)
11 12.12 СВ 1
{3}
н/о н/о +21.6 +18.6 83 +26 +26 душно 1019.7 910.6
10 12.12 СВ 1
{3}
н/о н/о +20.0 +18.0 88 +24 +24 комфорт 1020.1 910.4
12 12.12 С 1
{3}
н/о н/о +21.1 +18.2 84 +25 +25 комфорт 1020.4 911.0
13 12.12 СВ 2
{3}
н/о н/о +23.3 +18.4 74 +29 +29 душно 1019.2 910.7 0.2
14 12.12 СВ 1
{4}
н/о н/о +23.7 +18.4 72 +28 +28 душно 1018.7 910.4
15 12.12 С 1
{3}
н/о н/о +23.1 +17.8 72 +29 +29 очень
душно
1019.0 910.5
17 12.12 СЗ 1
{3}
н/о н/о +26.2 +18.3 62 +31 +31 очень
душно
1016.3 909.1
16 12.12 СВ 1
{3}
н/о н/о +24.7 +17.5 64 +29 +29 душно 1017.6 909.8
18 12.12 С 1
{3}
н/о н/о +24.8 +17.8 65 +29 +29 душно 1016.1 908.5
19 12.12 СВ 1
{3}
н/о н/о +23.4 +18.5 74 +30 +30 очень
душно
1016.4 908.3
20 12.12 СВ 2
{3}
н/о н/о +22.5 +18.3 77 +28 +28 душно 1016.8 908.3
21 12.12 СВ 1
{3}
н/о н/о +21.2 +18.5 85 +26 +26 душно 1017.2 908.2
23 12.12 СВ 1
{2}
н/о н/о +20.1 +18.7 92 +25 +25 комфорт 1018.1 908.6
22 12.12 СВ 1
{3}
н/о н/о +20.6 +18.7 89 +26 +26 душно 1017.6 908.4
00 13.12 В 1
{2}
н/о н/о +19.4 +18.8 96 +23 +23 комфорт 1018.8 909.0
01 13.12 СВ 1
{3}
н/о н/о +19.1 +18.8 98 +22 +22 комфорт 1018.8 908.9
02 13.12 СВ 1
{3}
н/о н/о +19.2 +19.0 99 +23 +23 комфорт 1018.6 908.8
03 13.12
{3}
н/о н/о +19.1 +18.9 99 1018.0 908.2
05 13.12 СЗ 2
{5}
н/о н/о +18.4 +18.3 99 +20 +20 1017.5 907.5
04 13.12 С 2
{4}
н/о н/о +18.8 +18.7 99 +21 +21 комфорт 1017.5 907.6
06 13.12 СЗ 2
{5}
н/о н/о +18.3 +18.2 99 +20 +20 1017.3 907.3
07 13.12 С 2
{4}
н/о н/о +17.7 +17.6 99 +18 +18 1017.4 907.2
08 13.12 С 3
{5}
н/о н/о +17.6 +17.5 99 +18 +18 1017.8 907.5
09 13.12 С 2
{5}
н/о н/о +18.0 +17.9 99 +19 +19 1018.0 907.8
11 13.12 С 2
{5}
н/о н/о +19.7 +18.8 95 +23 +23 комфорт 1018.0 908.4
10 13.12 С 2
{4}
н/о н/о +18.5 +18.4 99 +20 +20 1018.2 908.2
12 13.12 СЗ 3
{5}
н/о н/о +21.1 +18.6 86 +25 +25 комфорт 1017.7 908.6
13 13.12 С 2
{6}
н/о н/о +22.8 +19.0 79 +29 +29 очень
душно
1017.0 908.6
14 13.12 С 2
{6}
н/о н/о +24.2 +19.6 76 +29 +29 душно 1016.1 908.3
15 13.12 СЗ 2
{5}
н/о н/о +25.6 +19.0 67 +31 +31 очень
душно
1015.4 908.1
17 13.12 СЗ 3
{5}
н/о н/о +27.5 +18.6 58 +32 +32 очень
душно
1013.5 907.1
16 13.12 СЗ 2
{5}
н/о н/о +27.4 +18.9 60 +33 +33 очень
душно
1014.0 907.5
18 13.12 СЗ 2
{5}
н/о н/о +26.8 +17.6 57 +31 +31 душно 1013.1 906.5
19 13.12 СВ 1
{4}
н/о н/о +25.3 +17.4 62 +29 +29 душно 1013.7 906.5
20 13.12 С 2
{3}
н/о н/о +25.6 +17.8 62 +30 +30 душно 1013.7 906.6
21 13.12 СВ 2
{3}
н/о н/о +23.0 +17.8 73 +28 +28 душно 1014.5 906.4
23 13.12 С 1
{2}
н/о н/о +22.0 +17.5 76 +27 +27 душно 1015.9 907.3
22 13.12 С 1
{3}
н/о н/о +21.9 +17.7 77 +26 +26 душно 1015.5 906.9
00 14.12 С 2
{3}
н/о н/о +20.9 +17.4 80 +26 +26 душно 1016.8 907.8
01 14.12
{5}
н/о н/о +20.3 +17.4 83 1017.2 907.9
02 14.12 С 2
{4}
н/о н/о +19.8 +17.0 84 +23 +23 комфорт 1017.2 907.7
03 14.12 С 2
{5}
н/о н/о +19.4 +17.4 88 +22 +22 комфорт 1017.0 907.4
05 14.12
{5}
н/о н/о +18.3 +17.9 98 1016.2 906.3
04 14.12 С 2
{5}
н/о н/о +18.9 +17.8 93 +21 +21 комфорт 1016.6 906.9
06 14.12 С 3
{5}
н/о н/о +17.9 +17.6 98 +18 +18 1015.9 905.9
07 14.12 С 3
{5}
н/о н/о +18.0 +17.8 99 +18 +18 1016.2 906.2
08 14.12 С 3
{5}
н/о н/о +17.8 +17.7 99 +18 +18 1017.3 907.1
09 14.12 СЗ 3
{5}
н/о н/о +18.2 +18.1 99 +19 +19 1017.8 907.7
11 14.12 С 2
{4}
н/о н/о +22.0 +18.3 80 +27 +27 душно 1017.3 908.6
10 14.12 СЗ 3
{5}
н/о н/о +19.7 +18.0 90 +23 +23 комфорт 1018.0 908.4
12 14.12 СЗ 2
{4}
н/о н/о +23.6 +19.0 75 +28 +28 душно 1017.4 909.2
13 14.12 С 1
{3}
н/о н/о +25.1 +18.5 67 +30 +30 душно 1016.6 909.0
14 14.12 СВ 1
{3}
н/о н/о +25.9 +18.2 63 +31 +31 очень
душно
1015.8 908.6
15 14.12 С 1
{3}
н/о н/о +26.7 +17.3 56 +31 +31 душно 1015.4 908.5
17 14.12 СВ 1
{4}
н/о н/о +26.9 +16.4 53 +30 +30 душно 1014.4 907.7
16 14.12 СВ 2
{4}
н/о н/о +26.4 +16.2 53 +30 +30 душно 1015.1 908.1
18 14.12 СВ 1
{3}
н/о н/о +26.8 +13.1 43 +29 +29 жарко 1014.2 907.5
19 14.12 СВ 1
{2}
н/о н/о +27.1 +12.9 41 +29 +29 жарко 1014.2 907.6
20 14.12 СВ 2
{3}
н/о н/о +25.5 +15.4 54 +29 +29 душно 1014.9 907.6
21 14.12 В 1
{3}
н/о н/о +24.1 +16.2 61 +27 +27 жарко 1016.1 908.2
23 14.12 штиль 0
{2}
н/о н/о +21.1 +20.1 94 +26 +26 душно 1018.9 909.7
22 14.12 ЮВ 1
{2}
н/о н/о +21.6 +19.9 90 +27 +27 душно 1017.8 908.9
00 15.12 штиль 0
{1}
н/о н/о +20.2 +19.6 96 +24 +24 комфорт 1019.7 910.1
01 15.12 В 1
{2}
н/о н/о +19.3 +18.9 98 +23 +23 комфорт 1020.2 910.2
02 15.12 СВ 2
{3}
н/о н/о +19.3 +17.8 91 +22 +22 комфорт 1019.8 909.9
03 15.12 С 2
{4}
н/о н/о +18.8 +18.0 95 +21 +21 комфорт 1019.5 909.4
05 15.12 СВ 3
{5}
н/о н/о +18.7 +17.2 91 +20 +20 1019.0 908.9
04 15.12 С 3
{5}
н/о н/о +18.6 +18.0 96 +20 +20 1019.2 909.1
06 15.12 С 2
{4}
н/о н/о +17.9 +17.3 96 +18 +18 1019.3 908.9
07 15.12 С 2
{4}
н/о н/о +17.7 +17.5 99 +18 +18 1019.7 909.2
08 15.12 СВ 2
{3}
н/о н/о +17.9 +17.8 99 +19 +19 1020.4 909.9
09 15.12 С 1
{3}
н/о н/о +18.0 +17.9 99 +19 +19 1020.9 910.4
11 15.12 СВ 1
{3}
н/о н/о +19.9 +18.2 90 +24 +24 комфорт 1020.7 910.9
10 15.12 СВ 1
{3}
н/о н/о +18.4 +18.2 99 +20 +20 1021.1 910.7
12 15.12 СВ 1
{3}
н/о н/о +21.5 +18.4 83 +26 +26 душно 1020.5 911.3
13 15.12 С 2
{3}
н/о н/о +22.5 +18.3 77 +28 +28 душно 1019.8 911.0
14 15.12 СВ 1
{3}
н/о н/о +23.8 +17.6 68 +28 +28 душно 1019.0 910.7
15 15.12 СВ 1
{3}
н/о н/о +24.3 +17.8 67 +28 +28 душно 1018.1 910.1
17 15.12 СВ 2
{3}
н/о н/о +25.4 +17.9 63 +30 +30 душно 1016.6 909.1
16 15.12 С 1
{3}
н/о н/о +25.4 +18.1 64 +30 +30 душно 1017.0 909.5
18 15.12 В 1
{4}
н/о н/о +27.5 +18.4 58 +32 +32 очень
душно
1015.1 908.5
19 15.12 В 1
{2}
н/о н/о +25.5 +17.9 63 +30 +30 душно 1015.4 908.1
20 15.12 штиль 0
{2}
н/о н/о +24.1 +19.0 73 +29 +29 душно 1016.1 908.2
21 15.12 ЮВ 1
{2}
н/о н/о +22.4 +20.9 91 +29 +29 очень
душно
1017.2 908.6
23 15.12 ЮВ 1
{2}
н/о н/о +20.7 +20.1 96 +27 +27 душно 1018.9 909.6
22 15.12 штиль 0
{2}
н/о н/о +21.1 +20.3 95 +26 +26 душно 1018.0 908.9
00 16.12 штиль 0
{2}
н/о н/о +19.9 +19.4 97 +23 +23 комфорт 1019.7 910.0
01 16.12 штиль 0
{2}
н/о н/о +18.2 +17.7 97 +19 +19 1020.4 910.0
02 16.12 штиль 0
{2}
н/о н/о +17.7 +17.5 99 +18 +18 1020.2 909.7
03 16.12 штиль 0
{2}
н/о н/о +18.1 +17.9 99 +18 +18 1019.8 909.4
05 16.12 СВ 1
{2}
н/о н/о +17.9 +17.8 99 +20 +20 1019.4 909.0
04 16.12 штиль 0
{2}
н/о н/о +18.3 +18.1 99 +19 +19 1019.2 909.0
06 16.12 штиль 0
{2}
н/о н/о +17.5 +17.4 99 +17 +17 1019.5 909.0
07 16.12 СВ 1
{2}
н/о н/о +17.1 +16.9 99 +19 +19 1020.4 909.6
08 16.12 СВ 1
{2}
н/о н/о +16.8 +16.5 98 +18 +18 1021.6 910.6
09 16.12 штиль 0
{2}
н/о н/о +18.3 +17.0 92 +19 +19 1021.7 911.2
11 16.12 СВ 1
{2}
н/о н/о +21.5 +16.2 72 +25 +25 комфорт 1021.1 911.8
10 16.12 ЮВ 1
{1}
н/о н/о +20.2 +17.4 84 +25 +25 комфорт 1021.4 911.6
12 16.12 В 1
{3}
н/о н/о +24.0 +15.2 58 +27 +27 жарко 1020.2 911.9
13 16.12 Ю 1
{2}
н/о н/о +24.1 +14.8 56 +27 +27 жарко 1020.0 911.7
14 16.12 С 1
{3}
н/о н/о +26.1 +16.4 55 +30 +30 душно 1018.9 911.4
15 16.12 В 1
{3}
н/о н/о +25.4 +16.6 58 +29 +29 душно 1018.7 911.0
17 16.12 СВ 1
{3}
н/о н/о +25.3 +17.3 61 +29 +29 душно 1016.8 909.3
16 16.12 В 1
{2}
н/о н/о +26.4 +17.4 58 +31 +31 душно 1017.3 910.1
19 16.12 ЮВ 1
{3}
н/о н/о +26.3 +17.0 57 +30 +30 душно 1015.7 908.6
20 16.12 ЮВ 1
{3}
н/о н/о +23.3 +18.9 76 +30 +30 очень
душно
1016.7 908.5
21 16.12 штиль 0
{3}
н/о н/о +22.0 +19.5 86 +28 +28 душно 1017.2 908.5
23 16.12 штиль 0
{2}
н/о н/о +19.6 +18.6 94 +22 +22 комфорт 1019.0 909.3
22 16.12 штиль 0
{2}
н/о н/о +20.6 +19.4 93 +25 +25 комфорт 1018.2 908.9
00 17.12 штиль 0
{2}
н/о н/о +19.2 +18.4 95 +21 +21 комфорт 1019.5 909.6
01 17.12 штиль 0
{2}
н/о н/о +18.9 +18.3 96 +20 +20 1020.0 909.9
02 17.12 штиль 0
{2}
н/о н/о +18.6 +18.0 96 +20 +20 1020.0 909.8
03 17.12 штиль 0
{2}
н/о н/о +18.3 +17.8 97 +19 +19 1019.8 909.5
05 17.12 СВ 1
{2}
н/о н/о +17.2 +17.0 99 +18 +18 1019.3 908.7
04 17.12 В 1
{2}
н/о н/о +17.5 +17.3 99 +19 +19 1019.4 908.9
06 17.12 В 1
{2}
н/о н/о +16.7 +16.2 97 +18 +18 1019.2 908.4
07 17.12 СВ 2
{3}
н/о н/о +16.5 +15.1 91 +17 +17 1018.7 907.9
08 17.12 С 1
{3}
н/о н/о +16.4 +15.7 96 +17 +17 1019.4 908.5
09 17.12 СВ 1
{3}
н/о н/о +17.8 +16.9 94 +19 +19 1019.5 909.1
11 17.12 СВ 1
{3}
н/о н/о +20.5 +17.4 82 +25 +25 комфорт 1020.0 910.5
10 17.12 СВ 1
{4}
н/о н/о +19.4 +17.4 88 +23 +23 комфорт 1019.9 910.0
12 17.12 СВ 1
{3}
н/о н/о +21.2 +16.9 76 +25 +25 комфорт 1019.9 910.6
13 17.12 СВ 1
{3}
н/о н/о +21.6 +17.3 77 +26 +26 душно 1019.6 910.5
14 17.12 С 1
{3}
н/о н/о +21.8 +17.5 77 +26 +26 душно 1019.0 910.0
15 17.12
{3}
н/о н/о +24.0 +19.8 77 1017.7 909.6
17 17.12 СВ 1
{4}
н/о н/о +24.2 +18.3 70 +29 +29 душно 1016.1 908.3
16 17.12 С 1
{4}
н/о н/о +23.7 +18.0 70 +28 +28 душно 1017.1 909.0
18 17.12 В 1
{3}
н/о н/о +23.1 +17.7 72 +29 +29 очень
душно
1016.1 907.9
19 17.12 СВ 1
{3}
н/о н/о +22.9 +17.4 71 +28 +28 душно 1015.8 907.6
20 17.12 СВ 1
{2}
н/о н/о +25.3 +18.6 66 +30 +30 душно 1014.7 907.4
21 17.12 СВ 1
{3}
н/о н/о +21.8 +17.8 78 +26 +26 душно 1016.2 907.5
23 17.12 штиль 0
{2}
н/о н/о +19.0 +18.4 96 +21 +21 комфорт 1018.7 908.8
22 17.12 Ю 1
{2}
н/о н/о +19.8 +18.1 90 +24 +24 комфорт 1017.6 908.1
00 18.12 штиль 0
{1}
н/о н/о +19.0 +18.5 97 +21 +21 комфорт 1019.1 909.1
01 18.12 штиль 0
{2}
н/о н/о +18.0 +17.7 98 +18 +18 1019.6 909.2
02 18.12 В 1
{2}
н/о н/о +17.4 +17.2 99 +18 +18 1019.5 908.9
03 18.12 В 1
{2}
н/о н/о +17.4 +17.3 99 +19 +19 1018.7 908.2
05 18.12 В 1
{2}
н/о н/о +17.7 +17.5 99 +19 +19 1018.0 907.7
04 18.12 штиль 0
{3}
н/о н/о +17.5 +17.4 99 +17 +17 1018.2 907.8
06 18.12 В 1
{3}
н/о н/о +17.3 +17.2 99 +19 +19 1017.7 907.3
07 18.12 СВ 1
{3}
н/о н/о +17.4 +17.3 99 +18 +18 1017.9 907.5
08 18.12 В 1
{2}
н/о н/о +17.4 +17.4 100 +19 +19 1018.2 907.8
09 18.12 С 1
{3}
н/о н/о +17.9 +17.8 99 +19 +19 1018.9 908.6
11 18.12 С 1
{3}
н/о н/о +21.2 +18.7 86 +26 +26 душно 1018.6 909.5
10 18.12 СВ 1
{3}
н/о н/о +18.7 +18.0 96 +21 +21 комфорт 1019.0 908.9
12 18.12 СВ 1
{3}
н/о н/о +19.9 +17.3 85 +24 +24 комфорт 1019.6 909.9
13 18.12 С 2
{4}
н/о н/о +21.8 +17.0 74 +26 +26 душно 1018.6 909.7
14 18.12 С 1
{4}
н/о н/о +23.6 +18.0 71 +28 +28 душно 1016.9 908.8
15 18.12 СЗ 2
{5}
н/о н/о +25.5 +17.1 60 +29 +29 душно 1015.5 908.2
17 18.12 СЗ 2
{4}
н/о н/о +27.5 +17.1 53 +31 +31 душно 1013.1 906.7
16 18.12 С 2
{4}
н/о н/о +26.9 +17.6 57 +31 +31 душно 1014.4 907.7
18 18.12 С 2
{4}
н/о н/о +27.6 +17.9 56 +32 +32 очень
душно
1012.5 906.2
19 18.12 С 1
{4}
н/о н/о +27.3 +17.3 54 +31 +31 душно 1012.2 905.8
20 18.12 СВ 2
{4}
н/о н/о +24.8 +16.8 61 +28 +28 жарко 1012.8 905.5
21 18.12 С 1
{3}
н/о н/о +23.7 +16.1 62 +27 +27 жарко 1013.5 905.8
23 18.12 СВ 2
{3}
н/о н/о +22.3 +16.5 70 +27 +27 душно 1015.0 906.6
22 18.12 СВ 2
{3}
н/о н/о +22.7 +16.2 67 +27 +27 душно 1014.1 906.0
00 19.12 С 2
{4}
н/о н/о +22.1 +16.7 71 +26 +26 душно 1015.4 906.9
01 19.12 С 2
{4}
н/о н/о +21.6 +16.6 73 +25 +25 комфорт 1015.9 907.2
02 19.12
{4}
н/о н/о +21.0 +16.6 76 1016.2 907.3
03 19.12 С 3
{5}
н/о н/о +20.1 +17.1 83 +23 +23 комфорт 1015.9 906.7
05 19.12 С 3
{5}
н/о н/о +19.6 +16.9 84 +22 +22 комфорт 1014.8 905.5
04 19.12 С 3
{5}
н/о н/о +20.2 +17.0 82 +24 +24 комфорт 1015.1 906.0
06 19.12 С 2
{4}
н/о н/о +19.8 +16.9 83 +23 +23 комфорт 1014.6 905.4
07 19.12 С 3
{5}
н/о н/о +19.5 +16.7 84 +22 +22 комфорт 1014.7 905.4
08 19.12 С 3
{5}
н/о н/о +19.5 +16.7 84 +22 +22 комфорт 1015.3 905.9

 

Местоположение метеостанции Santa Tereza (Бразилия): широта -19.98 долгота -40.58 высота над уровнем моря 990 м.

В архиве по умолчанию представлена погода в Santa Tereza за последнюю неделю. Архивные данные за месяц целиком и за предыдущие месяцы, начиная с января 2011 года, Вы можете получить, выбрав интересующий диапазон дат из раскрывающегося списка и нажав кнопку "Ввод!".


*Определитесь, кто Вы:
робот инопланетянин человек

Внимание! Время в таблицах - всемирное. Для получения местного времени необходимо прибавить поправку, которая в Santa Tereza равна -3 ч.

Смотрите также архив погоды в соседних городах и на ближайших метеорологических станциях:

Погода в Vitoria (Бразилия) (44 км)
Погода в Vitoria (Бразилия) (47 км)
Погода в Alfredo Chaves (Бразилия) (74 км)
Погода в Aimores (Бразилия) (74 км)
Погода в Aimores (Бразилия) (75 км)
Погода в Linhares (Бразилия) (88 км)
Погода в Alegre (Бразилия) (127 км)
Погода в Presidente Kennedy (Бразилия) (133 км)
Погода в Mantena (Бразилия) (140 км)
Погода в Nova Venecia (Бразилия) (144 км)

Пояснения к столбцам:

Ветер - указаны скорость ветра в м/с - средняя за 10 мин, порывы в срок и между сроками (в фигурных скобках) и направление, откуда дует ветер: С - северный, СВ - северо-восточный, В - восточный, ЮВ - юго-восточный, Ю - южный, ЮЗ - юго-западный, З - западный, СЗ - северо-западный.
Видимость - горизонтальная дальность видимости в метрах или километрах. При видимости от 1 до 10 км при отсутствии осадков обычно наблюдается дымка, при ухудшении видимости до 1 км и менее - туман. В сухую погоду видимость может ухудшаться дымом, пылью или мглою.
Явления - указаны атмосферные явления, наблюдавшиеся в срок или в последний час перед сроком; фигурными скобками обозначены явления, наблюдавшиеся между сроками (за 1-3 часа до срока); квадратными скобками обозначены град или гололедные отложения с указанием их диаметра в мм.
Облачность - указаны через наклонную черту общая и нижняя облачность в баллах и высота нижней границы облаков в метрах; квадратными скобками обозначены формы облаков: Ci - перистые, Cs - перисто-слоистые, Cc - перисто-кучевые, Ac - высококучевые, As - высокослоистые, Sc - слоисто-кучевые, Ns - слоисто-дождевые, Cu - кучевые, Cb - кучево-дождевые. Подробнее классификацию облаков см. в Атласе облаков (PDF).
T - Температура воздуха - температура, измеренная на высоте 2 м над землей.
Td - Температура точки росы - температура, при понижении до которой содержащийся в воздухе водяной пар достигнет насыщения.
f - Относительная влажность воздуха - влажноcть воздуха, измеренная на высоте 2 м над землей.
Te - Эффективная температура - температура, которую ощущает одетый по сезону человек в тени. Характеристика душности погоды. При расчете учитывается влияние влажности воздуха и скорости ветра на теплоощущения человека.
Tes - Эффективная температура на солнце - температура, которую ощущает человек, с поправкой на солнечный нагрев. Характеристика знойности погоды. Зависит от высоты солнца над горизонтом, облачности и скорости ветра. Ночью, в пасмурную погоду, а также при ветре 12 м/с и более поправка равна нулю.
P - Атмосферное давление - приведенное к уровню моря атмосферное давление.
Po - Атмосферное давление - измеренное на уровне метеостанции атмосферное давление.
Tmin - Минимальная температура - минимум температуры воздуха на высоте 2 м над землей.
Tmax - Максимальная температура - максимум температуры воздуха на высоте 2 м над землей.
R - Количество осадков - Количество выпавших осадков за период времени, мм. При наведении курсора мыши на число - период времени, за который выпало указанное количество осадков.
R24 - Количество осадков - Количество выпавших осадков за 24 часа, мм.
S - Снежный покров - Высота снежного покрова, см. При наведении курсора мыши на число - состояние снежного покрова и степень покрытия местности в баллах.